This is the latest recevied weather packets stored in our database for station/object IT9DBI-3. If no packets are shown the sender has not sent any weather packets the latest 10 day(s).
| Time | Temp. | Humidity | Pressure | Rain* | Wind** | Luminosity | Snow |
|---|---|---|---|---|---|---|---|
| 1777989220 | 24.44° C | 48% | 1015.3 hPa | - | - | - | - |
| 1777988018 | 23.33° C | 50% | 1015.2 hPa | - | - | - | - |
| 1777986816 | 24.44° C | 47% | 1015.3 hPa | - | - | - | - |
| 1777985614 | 24.44° C | 45% | 1015.4 hPa | - | - | - | - |
| 1777984412 | 25° C | 46% | 1015.5 hPa | - | - | - | - |
| 1777983211 | 23.89° C | 48% | 1015.6 hPa | - | - | - | - |
| 1777982010 | 23.89° C | 47% | 1015.6 hPa | - | - | - | - |
| 1777980808 | 23.89° C | 48% | 1015.6 hPa | - | - | - | - |
| 1777979607 | 22.78° C | 51% | 1015.9 hPa | - | - | - | - |
| 1777978406 | 22.78° C | 53% | 1016 hPa | - | - | - | - |
| 1777977205 | 21.67° C | 55% | 1016.1 hPa | - | - | - | - |
| 1777976003 | 21.67° C | 62% | 1016.4 hPa | - | - | - | - |
| 1777974802 | 21.11° C | 61% | 1016.6 hPa | - | - | - | - |
| 1777973601 | 21.11° C | 60% | 1016.6 hPa | - | - | - | - |
| 1777972400 | 22.22° C | 57% | 1016.5 hPa | - | - | - | - |
| 1777971198 | 21.67° C | 57% | 1016.5 hPa | - | - | - | - |
| 1777969997 | 20.56° C | 55% | 1016.6 hPa | - | - | - | - |
| 1777968795 | 20.56° C | 56% | 1016.6 hPa | - | - | - | - |
| 1777967588 | 20° C | 61% | 1016.5 hPa | - | - | - | - |
| 1777966386 | 19.44° C | 62% | 1016.6 hPa | - | - | - | - |
| 1777965185 | 18.89° C | 64% | 1016.8 hPa | - | - | - | - |
| 1777963982 | 18.33° C | 66% | 1016.9 hPa | - | - | - | - |
| 1777962780 | 17.78° C | 67% | 1016.8 hPa | - | - | - | - |
| 1777961578 | 17.78° C | 65% | 1016.8 hPa | - | - | - | - |
| 1777960377 | 17.22° C | 66% | 1016.8 hPa | - | - | - | - |
* Rain since midnight (hover to see other rain measurements)
** Current wind speed in m/s (hover to see current wind gust speed)